User: anonymous   Login
Location: Unspecified
(0.0000°N, 0.0000°E)
Time: 07:43:33
(UTC+02:00)
Language:

Sapphire - Orbit

View from above orbital plane
View from above orbital plane
View from above satellite
View from above satellite

Ground track
Ground track

The orbit data is extracted from the following two-line orbital elements,

1 26932U 01043D   18110.89996028 -.00000031  00000-0  19949-4 0  9993
2 26932  67.0580  20.0055 0005827 293.7258  66.3231 14.30277568864372
Epoch (UTC): 20 April 2018 21:35:56
Eccentricity: 0.0005827
inclination: 67.0580°
perigee height: 786 km
apogee height: 795 km
right ascension of ascending node: 20.0055°
argument of perigee: 293.7258°
revolutions per day: 14.30277568
mean anomaly at epoch: 66.3231°
orbit number at epoch: 86437

The dashed part of the orbit path shows where the satellite is in the earth's shadow,  

DLR